Theta_e
339 338 338 337 337 337 339 338 338 338 338 338 337 337 333 331 325 322 321 324 326 330 331 329 332 333 333 333 334 333 333 331 329 329 330 332 332 322 318 318 322 325 325 324 325 326 325 324 323 326 327 326 327 329 327 327 327 327 327 329 330 327 322 319 318 319 320 321 320 319 318 316 316 316
338 338 337 337 336 337 338 339 338 338 338 336 336 336 336 335 329 326 323 323 329 330 333 331 328 330 331 333 334 333 332 328 329 331 331 332 333 323 317 316 317 320 320 320 320 322 324 326 327 328 328 328 327 327 327 327 326 325 326 328 328 324 321 319 319 319 321 320 319 318 316 315 315 315
338 337 336 336 336 337 336 337 338 338 339 338 337 336 337 335 333 330 328 323 329 332 329 332 333 332 336 333 332 333 333 329 329 332 332 333 328 324 321 316 316 315 316 316 318 319 321 323 324 325 327 328 328 328 328 327 325 324 323 322 321 321 319 320 320 321 321 320 319 319 317 316 316 316
338 337 335 335 335 336 336 336 337 337 337 337 336 335 335 334 334 333 330 327 327 333 331 332 334 333 333 335 332 331 333 332 325 333 333 333 326 328 330 318 316 315 314 314 314 317 318 318 321 322 324 325 326 327 327 325 322 320 318 318 318 318 317 317 319 322 321 320 320 319 318 317 316 316
337 336 335 335 336 336 335 335 336 336 337 336 336 335 334 333 333 332 330 327 327 331 336 335 334 335 336 333 333 332 332 331 328 329 334 333 331 330 331 329 317 315 313 312 311 311 311 313 317 321 323 323 324 326 322 319 318 319 318 316 314 314 315 315 317 320 321 320 320 319 318 318 318 318
337 336 335 335 335 336 335 334 334 335 335 335 334 334 333 332 332 333 330 328 327 326 332 333 335 334 336 331 334 332 331 332 330 329 331 333 334 333 331 331 327 314 313 312 310 310 310 310 310 313 316 315 314 314 314 313 312 316 317 313 309 311 311 313 314 316 318 318 318 318 317 317 317 317
336 335 335 335 334 336 334 334 334 334 333 334 333 333 333 331 331 331 331 329 327 327 328 333 332 332 334 332 332 332 333 334 335 330 329 330 332 332 331 331 331 316 313 311 311 310 309 309 308 308 309 310 310 310 310 310 310 310 311 310 309 308 308 308 311 315 318 316 316 316 316 316 317 317
335 335 334 335 335 335 333 333 333 333 333 333 332 332 332 331 330 330 330 331 328 328 327 330 331 333 332 333 334 334 334 332 332 332 333 333 333 334 333 332 331 322 312 312 311 310 309 308 308 307 307 307 308 308 308 308 308 308 308 309 309 308 307 306 306 308 312 312 312 313 313 313 316 317
335 335 335 335 335 335 334 334 332 332 332 333 332 331 331 330 331 331 330 330 330 328 327 329 331 332 332 334 333 334 332 332 332 332 331 332 332 332 332 333 332 323 312 312 312 310 309 308 307 306 306 306 306 306 306 307 307 307 307 307 307 307 306 306 305 305 305 306 306 309 311 310 312 316
336 335 335 336 336 335 334 334 333 332 331 332 331 331 330 329 329 329 329 330 329 328 328 328 329 331 330 330 331 333 333 331 330 330 331 331 332 330 329 330 332 332 321 319 317 311 309 308 307 307 306 305 304 305 305 306 306 307 307 307 307 306 306 305 304 304 303 304 303 305 307 308 309 312
337 336 336 336 336 336 335 334 334 333 332 332 331 331 331 330 329 329 329 329 329 328 327 328 329 329 331 331 329 333 334 333 332 329 328 328 331 330 329 329 331 332 324 319 314 314 312 311 310 307 305 305 305 305 305 305 306 306 306 306 306 306 305 305 304 303 302 302 302 302 302 303 306 310
337 337 337 336 336 336 336 335 335 335 333 333 331 332 332 331 330 329 329 328 328 328 327 327 326 328 328 329 331 333 332 330 330 331 329 327 327 328 329 329 329 331 328 323 321 315 312 311 310 307 306 305 305 305 305 306 306 307 306 305 305 305 305 304 304 303 303 302 302 302 301 301 301 304
336 337 337 337 337 337 334 327 328 329 329 335 332 333 333 332 331 330 329 328 327 327 327 326 327 326 326 327 328 327 327 327 327 329 329 328 328 329 329 330 332 331 330 327 323 320 318 316 315 313 311 309 306 306 306 307 307 306 305 304 304 304 304 304 304 303 303 303 302 302 301 301 300 300
334 335 337 338 332 327 325 322 318 317 318 322 332 335 334 333 332 331 330 329 328 327 326 326 326 325 325 326 327 327 328 329 330 329 329 327 328 328 327 328 331 333 331 328 327 327 322 319 319 317 315 316 313 310 308 307 308 306 303 303 304 304 304 303 303 303 303 302 302 302 301 301 300 299
333 333 334 336 335 328 325 324 314 313 313 314 314 317 323 330 334 332 331 330 330 328 327 328 327 326 326 327 328 328 328 330 330 329 329 329 328 326 324 323 326 332 331 328 327 327 326 321 320 320 319 319 317 314 313 307 305 305 304 303 303 303 303 303 303 303 302 302 302 301 301 300 300 299
333 333 334 335 338 337 335 334 330 318 312 312 312 310 310 311 312 316 330 331 330 329 328 328 328 327 327 327 328 328 328 328 329 330 330 329 328 327 326 325 324 330 332 328 326 327 330 322 321 320 321 321 321 318 312 308 305 304 304 304 303 302 303 303 302 302 302 301 301 300 300 299 299 298
334 334 334 335 337 339 328 332 335 334 327 313 310 311 310 310 309 306 303 306 329 333 331 330 329 329 329 328 329 330 330 330 328 329 329 329 329 329 327 327 327 329 333 330 327 326 328 327 320 320 323 324 324 322 311 309 306 304 303 303 303 302 302 302 302 302 301 301 300 300 299 299 298 298
334 334 334 334 335 337 337 335 335 335 335 332 326 321 322 326 323 311 307 306 304 310 328 332 330 332 333 330 331 333 334 331 329 329 328 329 329 329 329 331 331 332 337 331 329 327 326 327 325 323 325 327 326 325 315 308 306 305 304 303 302 302 301 302 301 301 301 300 300 300 299 298 298 298
335 335 335 335 335 337 338 337 334 335 335 335 333 329 327 327 330 332 330 325 323 321 319 328 333 334 335 335 335 336 339 337 336 336 331 331 331 331 332 332 333 333 335 333 329 324 326 326 324 324 325 327 326 325 315 307 306 305 304 303 302 302 301 301 301 301 301 300 300 300 299 298 298 297
337 337 337 336 336 337 337 328 315 322 335 336 334 332 331 330 331 332 327 320 320 328 330 328 330 333 337 322 327 321 322 330 335 334 334 334 331 329 327 328 329 328 333 332 329 326 325 326 324 325 326 327 325 324 324 311 305 305 304 303 302 301 301 301 300 300 300 300 300 300 299 298 298 297
336 338 338 337 337 337 337 325 312 310 318 335 335 334 333 332 331 331 334 319 310 309 309 310 311 310 309 306 306 306 305 315 320 326 326 327 328 327 327 327 327 328 329 329 330 328 325 327 326 325 326 325 323 324 324 321 307 305 304 303 302 301 301 301 300 300 300 300 300 299 299 298 298 298
331 332 327 333 337 337 337 318 309 308 316 332 335 335 334 334 333 333 335 336 331 311 307 305 305 305 306 307 307 307 308 307 311 325 325 328 328 327 327 326 328 329 330 330 329 325 325 327 326 325 325 323 323 324 324 317 309 304 303 302 302 302 301 300 300 300 300 300 299 299 299 298 298 298
330 330 327 323 319 320 321 313 306 305 315 331 334 335 335 333 333 334 336 335 334 333 327 324 323 320 316 320 324 324 311 309 312 324 328 329 327 326 326 326 327 326 328 332 331 325 326 325 325 322 320 320 323 323 320 315 311 307 306 306 304 301 301 300 300 300 300 299 299 299 298 298 297 299
329 330 330 324 312 309 308 307 306 302 305 328 335 335 328 330 332 337 337 336 336 334 329 329 329 328 330 330 329 328 328 325 323 324 327 328 328 326 326 326 325 324 327 328 330 327 327 326 324 324 322 319 317 318 318 316 314 309 307 306 305 303 301 301 300 299 299 299 298 298 298 297 297 299
330 331 331 330 319 310 307 306 307 302 299 307 329 330 330 334 334 329 336 335 328 326 324 326 329 328 328 330 330 329 329 327 327 326 324 327 329 328 326 325 325 326 328 331 319 330 325 324 323 322 321 321 321 319 316 316 315 310 309 307 306 305 302 302 301 301 298 298 297 297 297 297 297 299
329 331 332 332 323 311 306 306 307 304 300 301 320 329 319 317 313 330 334 334 329 328 326 326 324 327 330 330 330 330 329 328 326 328 328 326 327 329 330 328 326 325 326 332 312 328 325 322 322 320 320 319 319 317 316 314 314 312 310 309 308 307 303 302 302 302 301 299 298 297 297 297 297 298
331 333 330 322 303 300 300 298 299 301 300 302 315 313 312 310 307 312 329 332 330 330 330 328 325 324 327 326 327 328 328 329 330 330 330 330 328 327 327 329 331 330 331 332 320 324 325 322 323 321 319 319 316 315 314 314 312 310 310 309 308 307 305 304 302 303 303 301 300 298 297 296 296 297
329 326 322 305 296 299 297 296 297 297 299 307 305 303 306 306 307 323 328 328 331 327 329 329 328 327 327 326 326 326 328 330 332 332 331 331 331 330 328 328 324 327 330 331 332 322 322 323 322 321 322 319 316 314 314 316 311 310 308 310 309 309 308 304 302 303 304 303 302 301 298 297 297 298
314 300 297 296 298 295 294 295 297 299 299 298 300 301 300 306 317 322 325 327 328 327 327 327 329 329 328 329 329 330 330 327 324 322 325 327 328 330 330 329 328 326 326 327 329 325 323 322 322 323 319 319 318 317 315 315 312 311 309 310 308 309 308 306 305 303 303 305 304 302 299 300 299 298
298 300 299 298 298 298 302 314 320 319 318 300 298 298 302 314 317 319 323 324 324 325 326 326 327 329 330 330 330 329 329 329 328 327 326 324 323 325 324 325 326 328 329 328 328 328 328 326 324 322 320 318 318 317 316 315 311 311 308 309 310 309 309 307 305 305 304 304 305 303 303 302 301 299
311 310 308 311 306 307 307 307 306 308 308 310 308 307 308 312 317 319 321 323 324 323 326 325 327 328 330 331 330 329 330 329 330 330 324 324 324 323 323 321 322 323 326 328 328 327 327 327 326 323 319 319 316 316 315 313 313 311 312 310 308 305 306 308 306 305 305 305 305 304 304 303 303 300
316 317 310 310 314 314 315 315 315 317 319 318 317 322 319 316 314 314 313 315 322 324 326 328 327 326 328 327 328 328 327 328 328 330 326 325 325 322 322 321 320 321 323 324 326 324 317 324 322 320 320 319 317 312 311 312 312 313 312 311 308 309 307 307 306 305 305 304 303 303 304 304 304 303
317 316 318 317 317 319 316 315 319 318 320 320 321 322 322 322 322 321 319 320 321 323 323 324 325 326 326 327 326 324 326 326 327 328 327 327 327 325 323 320 320 319 319 320 321 322 324 323 320 320 319 316 317 315 312 311 312 312 312 311 308 308 307 306 306 305 305 303 302 302 302 302 304 305
319 319 318 317 317 317 317 317 314 316 319 320 320 321 313 320 323 322 322 322 323 323 321 323 323 322 323 324 324 324 324 325 326 327 319 326 326 323 321 319 320 321 318 318 318 318 316 316 315 314 314 313 315 316 315 313 313 313 312 311 308 307 307 306 306 305 304 303 302 301 301 302 303 304
307 308 308 311 311 312 312 309 309 310 312 310 315 319 319 320 319 314 321 322 318 315 318 319 321 321 321 321 322 322 322 323 323 324 319 321 323 323 322 320 320 319 319 317 316 315 312 312 312 310 309 309 310 312 310 315 314 313 312 310 307 306 305 305 305 305 305 304 304 300 301 302 303 304
295 300 299 299 300 300 300 300 301 302 303 304 306 306 304 307 309 310 309 310 313 312 315 315 311 317 319 321 320 320 319 309 320 321 320 318 317 318 320 320 318 318 318 317 316 315 313 312 311 309 307 306 305 301 304 306 309 313 309 305 305 304 303 303 304 304 304 304 304 301 296 297 300 304
291 295 295 295 294 295 294 295 295 296 297 298 299 299 300 301 305 304 304 304 304 305 307 311 309 308 312 312 309 306 308 310 314 315 316 316 315 314 314 309 308 314 315 316 316 316 314 312 310 309 307 304 301 300 301 308 304 305 312 306 302 304 303 303 302 302 302 304 303 302 299 299 300 303
289 290 290 290 290 291 290 290 291 291 292 293 294 294 296 297 300 299 300 300 301 301 302 304 301 301 306 304 307 307 309 310 309 307 305 312 311 311 313 313 313 313 314 314 314 313 312 312 310 309 308 304 301 299 298 296 297 301 305 308 301 302 302 301 297 297 299 304 303 304 304 300 300 303
287 287 287 287 287 288 287 288 288 288 289 290 290 291 292 294 294 294 295 295 298 297 298 298 298 298 299 303 301 300 301 301 301 301 304 306 310 310 310 309 308 310 311 310 312 312 311 311 310 310 309 308 302 303 301 298 297 298 301 302 306 301 299 301 297 299 299 297 302 304 303 299 295 292
286 285 285 285 285 286 286 286 286 286 287 287 288 288 289 289 290 290 291 291 293 294 294 294 295 296 298 299 298 299 298 299 299 301 302 302 301 302 305 303 305 305 305 304 305 308 309 310 311 311 310 310 311 304 298 294 294 295 297 302 300 303 302 301 296 297 297 300 302 297 292 294 293 296
284 284 284 284 284 284 284 284 284 285 285 285 286 286 287 287 287 287 288 289 289 289 289 291 293 295 295 297 296 294 293 293 296 297 296 296 294 294 294 293 295 298 299 297 301 304 307 310 309 299 305 309 305 302 296 296 296 294 295 297 297 298 300 301 303 299 295 300 301 295 293 293 292 292
283 283 283 283 283 283 283 283 283 283 283 283 283 284 284 285 285 286 286 286 287 286 287 288 289 289 290 292 293 292 291 292 292 293 293 295 294 293 293 293 293 295 296 296 298 301 306 309 305 305 306 304 296 297 298 297 297 293 294 294 295 296 292 290 291 294 302 301 298 293 291 292 291 291
282 282 282 283 283 283 283 282 282 282 282 282 282 282 282 283 283 283 284 283 284 284 284 285 287 287 288 289 290 291 291 292 292 292 293 293 292 292 292 293 295 297 299 298 299 300 301 304 306 305 304 301 297 297 298 297 295 293 292 294 295 295 292 291 291 290 289 289 291 295 295 293 291 289
282 282 282 282 282 282 282 282 282 282 282 282 282 282 282 281 281 281 282 282 282 282 283 284 285 286 287 288 289 290 291 292 292 291 291 292 291 292 292 292 291 292 293 293 293 292 294 296 299 303 300 299 296 295 296 293 293 292 293 294 293 293 292 290 289 290 290 289 289 289 289 289 290 291
281 281 281 281 281 281 281 282 281 281 281 281 281 281 281 281 280 281 281 281 281 281 282 283 284 285 286 287 288 289 290 291 292 291 291 291 291 292 291 292 291 291 291 292 292 292 292 292 293 295 296 296 294 294 294 293 294 291 291 292 292 292 291 291 291 290 289 288 288 288 289 289 290 289
Wind_Speed
10 10 12 10 7 7 8 8 7 7 6 6 7 7 8 7 6 4 5 5 6 7 8 6 6 9 9 8 9 8 10 12 13 10 11 11 10 16 21 22 22 23 23 23 24 24 24 24 23 20 21 22 21 19 21 21 22 21 21 19 16 19 19 18 17 16 16 16 17 15 14 13 12 12
9 8 9 9 9 7 5 7 7 6 7 7 6 6 7 8 8 7 6 5 5 3 3 3 4 7 9 10 10 8 7 10 12 9 10 10 10 17 21 21 21 22 22 22 22 24 24 24 23 23 22 21 21 21 22 23 22 22 22 20 19 19 19 18 18 17 14 14 15 15 14 14 14 14
10 10 10 9 9 8 8 6 6 7 7 7 7 6 6 7 8 8 7 5 5 5 5 5 6 3 3 5 5 6 7 8 13 10 10 11 13 16 16 21 20 21 21 21 21 22 23 23 24 23 23 22 22 20 21 22 23 22 21 20 19 19 19 19 18 16 17 17 16 16 15 15 15 16
11 11 12 11 9 9 8 8 7 7 7 6 7 7 7 7 7 7 7 8 7 6 7 7 6 5 6 7 6 4 6 8 16 8 9 11 14 13 11 20 22 22 22 22 21 21 21 21 22 22 22 22 22 22 21 22 22 22 21 20 19 19 19 19 19 18 19 18 18 18 17 16 17 17
11 12 12 13 12 10 10 9 9 8 8 8 8 8 7 8 7 7 7 8 8 5 6 6 5 5 4 4 4 4 4 4 8 9 10 11 11 10 10 11 19 21 21 21 21 21 21 21 20 21 21 21 21 21 21 20 20 20 20 20 20 19 19 19 19 18 19 20 20 19 19 18 17 17
11 10 12 13 13 12 12 10 11 10 10 9 9 10 8 8 8 9 8 9 8 8 5 7 7 6 6 7 5 5 5 5 7 8 6 7 7 8 8 8 10 20 20 21 21 21 22 22 22 22 21 21 20 21 20 20 20 20 20 20 20 20 19 19 19 19 19 19 19 18 18 17 17 17
12 12 11 12 11 10 12 11 11 10 11 11 11 11 9 9 9 9 9 7 8 9 8 6 6 6 7 8 8 8 6 6 6 7 8 8 8 7 8 9 9 19 22 22 22 23 23 22 22 22 22 21 21 20 20 20 20 19 19 19 19 19 19 19 19 18 16 19 19 18 17 17 17 16
13 14 12 12 11 10 11 12 11 11 10 10 10 11 10 10 11 9 8 9 7 6 7 7 8 6 6 6 7 6 5 6 7 8 8 8 7 7 7 8 9 14 24 24 24 23 23 23 22 22 21 21 20 20 20 20 20 19 19 19 19 19 19 19 19 19 20 20 19 19 18 17 16 16
13 13 13 13 12 11 11 11 12 11 12 10 9 10 10 10 10 9 9 10 9 7 8 6 6 6 6 6 7 8 8 7 7 6 7 7 8 9 9 9 9 12 22 24 24 23 22 22 21 20 20 19 19 20 20 20 20 19 18 19 19 19 19 19 19 19 19 19 18 18 18 17 16 16
11 11 12 12 12 12 13 12 10 11 12 11 10 10 10 10 9 10 10 10 10 10 9 8 6 6 7 5 6 7 8 7 6 7 7 5 7 9 9 9 7 5 6 7 9 12 14 15 17 18 18 19 20 20 20 20 19 19 18 19 19 19 19 19 19 19 19 18 18 18 17 16 16 14
12 12 11 11 13 14 14 14 12 10 11 11 13 11 10 9 7 9 10 10 11 10 9 9 8 7 7 8 8 7 7 7 8 9 7 8 8 8 9 9 8 5 5 8 14 14 15 17 15 18 20 20 20 19 19 19 19 18 19 19 20 20 20 20 20 19 19 18 19 18 17 16 16 14
12 13 13 12 12 14 14 13 13 10 10 10 11 11 9 9 9 8 8 9 10 11 11 10 9 8 7 6 6 4 6 9 9 9 8 10 9 8 6 7 7 8 6 5 5 7 9 10 13 13 14 17 17 18 17 18 18 19 19 20 20 20 20 20 20 20 19 19 19 18 17 16 16 15
11 10 12 13 13 13 16 18 15 14 12 8 10 11 11 11 10 10 8 8 9 9 9 10 8 7 8 9 7 8 10 11 10 5 6 8 7 6 6 7 6 6 6 6 6 7 8 9 8 8 8 11 15 15 18 14 19 19 18 19 20 19 20 20 20 20 20 19 19 18 18 17 16 16
12 12 11 11 17 18 18 17 18 18 18 17 12 10 11 12 11 11 10 9 9 9 10 10 10 10 11 10 10 10 10 8 7 8 7 7 5 4 6 6 5 4 5 4 6 7 7 9 8 8 10 9 10 9 9 11 13 15 19 20 19 19 20 20 20 20 20 20 19 19 18 17 16 16
14 13 13 12 14 15 15 15 19 19 20 20 20 18 15 14 13 11 11 11 9 8 10 9 8 10 12 12 10 11 9 7 9 9 8 8 6 6 6 8 4 5 6 6 5 7 5 9 9 9 9 9 8 9 10 15 18 19 18 19 19 19 20 20 21 20 20 20 20 19 19 17 16 16
14 14 13 12 11 12 13 13 14 16 19 22 23 21 18 15 14 12 12 11 10 10 10 10 11 10 11 9 9 10 9 9 8 9 8 8 9 8 9 9 9 4 7 8 7 10 4 8 8 8 10 9 9 11 14 18 20 21 21 20 20 20 20 21 20 20 20 20 20 20 19 17 16 16
14 13 12 12 12 11 18 16 14 12 13 18 22 22 19 18 17 16 15 12 10 9 10 11 11 11 9 8 10 8 6 4 8 8 9 9 9 9 10 11 8 6 6 5 7 9 8 8 8 9 9 9 9 11 15 19 19 19 20 20 20 20 20 21 21 20 20 20 20 20 19 18 16 16
16 16 14 14 13 12 12 13 15 14 14 14 14 14 13 14 17 19 19 19 17 12 10 11 13 12 7 9 5 1 1 4 8 7 8 7 7 9 12 9 9 6 6 9 6 8 7 7 8 11 8 7 8 8 14 22 20 20 21 21 21 21 21 21 21 20 20 20 20 20 19 17 16 16
18 18 17 16 15 14 13 12 15 16 16 15 15 15 16 16 16 16 17 15 13 12 10 12 13 11 8 7 5 3 1 1 1 0 1 3 4 6 4 5 6 6 6 6 5 11 7 5 7 10 8 7 9 8 12 19 21 22 22 21 21 21 21 21 21 21 21 21 20 20 18 17 16 16
16 16 17 16 16 15 15 17 20 20 17 15 15 16 16 16 15 15 16 18 17 16 14 12 13 11 7 1 0 2 2 4 4 6 5 4 3 3 4 7 4 6 4 7 8 9 9 5 8 10 8 7 8 8 9 14 20 21 22 21 20 19 20 20 20 20 20 20 20 19 18 17 17 17
11 12 15 15 14 15 15 19 21 21 21 16 16 15 15 14 13 14 14 16 18 18 17 15 16 15 12 13 15 14 11 5 1 3 5 7 3 3 7 8 7 9 4 6 9 8 10 8 7 9 6 6 7 7 6 6 14 20 21 19 19 19 19 19 19 19 19 19 19 18 18 18 17 17
10 13 20 16 11 13 15 19 20 21 19 17 16 14 14 13 13 13 12 11 11 17 16 15 15 14 15 17 19 19 19 17 6 4 8 7 3 7 7 9 9 7 6 8 7 4 12 5 5 8 6 5 6 6 6 4 5 13 15 18 19 18 18 18 18 17 18 18 17 17 17 17 14 9
10 12 14 19 19 14 17 18 12 18 17 15 15 15 14 13 12 12 11 10 9 6 7 9 12 14 18 18 15 16 22 20 14 11 11 9 9 11 11 10 9 9 10 7 9 10 10 7 7 5 3 7 7 4 3 4 3 4 5 8 9 12 14 16 16 16 17 16 16 16 16 15 12 7
13 12 11 10 17 19 20 22 19 13 18 17 16 13 10 14 16 13 11 8 9 5 1 2 9 13 13 12 13 14 14 13 13 13 11 11 11 12 12 11 10 11 9 2 10 9 7 7 9 7 9 8 7 2 4 3 5 5 6 6 6 11 13 11 10 14 15 15 16 15 15 14 13 7
13 13 12 11 19 22 20 20 23 12 15 16 10 9 13 16 13 8 6 9 5 5 5 8 6 4 7 11 10 9 9 9 8 7 9 10 11 12 12 12 11 12 12 8 7 8 6 4 7 4 6 7 8 5 2 5 4 6 7 9 9 7 7 8 6 7 9 12 12 14 14 13 15 10
13 12 11 11 15 22 19 20 21 19 16 19 14 16 20 16 13 9 8 4 5 7 6 7 6 6 7 7 8 9 8 8 7 7 8 10 11 12 12 13 13 13 15 11 14 10 8 5 6 4 5 5 7 6 5 4 3 5 7 8 9 9 10 9 7 6 6 7 7 9 11 13 14 15
11 8 3 5 10 10 9 7 12 16 17 14 12 20 20 16 15 11 8 6 6 6 7 8 9 10 10 8 7 7 7 6 6 7 9 10 11 11 11 12 12 13 13 8 6 7 7 6 1 7 8 6 7 2 5 8 5 4 5 7 6 3 6 6 8 7 7 7 8 11 10 9 12 14
4 5 2 4 11 10 10 9 8 8 10 10 14 14 17 17 14 9 8 7 8 7 8 8 7 8 8 8 8 8 6 6 7 9 9 8 9 9 9 10 11 12 14 13 10 3 1 6 8 9 10 8 7 9 12 7 4 7 9 5 6 9 8 10 9 9 9 8 7 7 6 6 7 8
5 7 9 11 12 10 9 9 9 8 8 13 16 14 11 6 3 5 6 7 7 7 8 7 7 7 9 10 9 6 6 4 3 2 3 4 3 4 6 8 9 10 10 10 8 5 10 11 9 5 3 6 8 9 8 9 6 6 7 7 7 8 9 10 10 11 10 9 9 9 10 10 9 9
1 3 7 10 8 5 5 5 7 8 8 10 13 14 8 5 6 6 7 7 8 8 7 7 9 8 7 6 6 6 6 8 9 8 8 6 6 6 7 7 9 8 9 11 10 11 14 12 10 11 9 9 9 9 9 8 3 5 6 9 5 1 7 8 9 9 10 10 10 8 8 9 10 10
6 5 4 4 7 8 7 9 8 7 9 6 3 0 4 7 7 7 7 7 6 7 7 8 8 7 6 6 5 6 6 7 7 8 8 8 9 9 10 9 9 9 11 11 9 10 10 11 13 12 12 11 8 9 3 1 7 7 9 8 8 10 3 9 8 9 10 9 8 5 6 5 5 8
1 1 4 7 6 6 6 5 1 3 5 6 5 8 7 6 4 7 9 8 7 8 8 7 6 6 5 6 7 7 7 7 7 6 7 7 7 7 8 8 10 10 11 10 9 8 8 9 9 10 12 12 9 3 5 8 8 9 9 9 8 8 3 9 7 8 9 8 7 6 6 7 8 6
3 3 2 1 1 1 2 2 3 3 5 5 4 6 7 6 8 7 6 8 8 8 7 7 7 7 6 7 6 6 7 8 7 6 7 7 8 6 7 10 9 9 10 11 9 8 7 7 6 8 7 6 7 8 6 7 10 9 9 7 8 9 8 7 8 8 8 9 8 8 8 6 7 8
2 3 4 2 0 1 0 1 2 4 5 5 4 3 5 7 8 8 9 9 8 7 8 7 7 7 7 8 7 7 8 7 6 6 6 7 6 7 7 9 9 8 8 9 8 8 5 3 3 3 3 5 6 7 8 10 12 10 7 7 7 9 7 8 7 9 10 9 8 7 5 5 7 7
10 9 9 10 10 9 9 9 9 8 9 8 6 7 7 4 6 7 6 7 7 6 6 7 7 6 6 7 6 6 7 7 7 6 4 5 6 8 9 10 9 9 10 10 8 5 4 4 5 3 3 4 6 8 10 12 12 10 7 7 6 6 7 5 7 7 8 5 6 8 7 6 8 10
11 11 11 10 11 10 9 10 10 10 9 8 8 8 8 8 8 9 10 10 10 11 10 9 5 6 6 6 7 7 7 6 7 6 5 5 6 7 8 9 8 8 7 7 6 5 5 6 6 7 7 7 8 7 9 13 14 8 8 6 5 6 6 7 7 9 10 10 8 9 9 9 10 10
11 11 10 8 9 10 9 9 9 9 9 9 9 9 9 9 9 9 10 10 9 8 9 8 8 9 9 9 8 6 6 6 6 6 6 5 4 4 6 5 6 7 7 7 5 4 5 6 6 7 8 8 7 10 9 1 11 11 11 9 6 8 9 9 9 9 7 7 9 10 10 9 10 8
11 10 9 9 9 8 9 9 9 9 10 10 9 9 9 9 9 10 10 10 10 9 10 10 9 9 9 7 8 9 9 7 6 4 3 4 4 5 6 7 8 7 8 8 6 5 4 6 7 8 9 10 10 9 8 3 1 4 10 10 8 9 8 10 9 10 9 8 9 9 8 9 9 9
11 11 10 10 10 9 10 10 9 9 9 9 9 9 9 9 10 10 11 11 10 10 9 10 9 8 8 9 7 6 6 6 6 7 7 6 5 5 5 5 6 6 6 7 6 5 5 6 7 7 9 10 10 10 9 5 6 5 8 15 10 8 8 11 10 8 9 7 8 7 4 0 3 8
11 10 10 10 10 10 10 10 9 9 9 9 9 9 9 10 10 10 10 10 10 10 10 9 10 9 9 9 8 9 7 6 6 6 6 6 5 6 6 5 6 5 5 6 7 6 6 7 7 8 9 10 9 3 3 3 1 1 4 8 14 17 12 10 10 10 8 9 8 6 5 4 6 3
10 10 10 9 9 10 10 10 9 9 10 9 9 9 9 9 9 10 10 10 9 10 9 10 10 11 10 10 9 8 7 7 7 6 6 6 5 5 6 6 5 5 6 6 7 7 7 6 6 8 8 7 1 5 1 1 3 2 4 6 9 10 11 9 9 10 7 8 9 7 7 7 6 5
9 9 9 9 9 8 8 8 8 8 8 9 9 9 9 9 8 12 10 11 10 10 9 9 8 9 9 9 9 8 7 6 6 6 6 7 6 6 6 5 5 5 5 7 8 8 7 6 6 5 5 4 3 5 9 9 7 4 4 4 4 4 8 10 9 5 5 7 8 5 4 3 3 5
10 9 9 9 9 8 9 9 9 8 8 8 8 9 8 9 9 10 8 9 9 9 9 8 8 8 8 8 8 8 7 6 6 6 7 6 5 6 6 5 6 6 7 7 7 6 6 6 6 6 6 5 6 7 10 9 6 5 5 5 6 5 3 8 11 13 14 14 9 2 5 7 6 4
10 10 9 9 9 9 9 9 9 8 8 8 7 8 8 8 8 9 8 8 9 9 9 9 9 8 8 8 8 7 6 7 7 7 6 5 5 6 7 6 6 7 7 5 6 5 5 6 6 6 5 6 5 6 9 5 5 5 7 7 5 6 6 4 4 7 9 12 13 10 11 11 7 7
9 9 9 9 9 9 9 9 9 9 8 8 8 8 8 7 8 8 8 8 8 8 8 8 8 9 9 8 8 8 8 7 7 6 6 6 6 6 6 6 5 5 5 5 5 6 5 5 5 5 5 5 4 6 6 5 5 5 4 6 7 6 6 6 6 5 4 3 9 12 9 11 12 12
Wind_Direction
203 206 210 215 218 208 203 210 212 209 216 201 186 179 181 180 194 196 205 222 224 237 226 215 218 215 227 232 238 208 200 208 197 187 192 195 190 199 203 206 211 216 219 221 223 225 226 228 230 231 232 234 235 234 235 235 236 237 236 234 226 225 225 224 224 225 229 232 239 243 246 250 252 253
207 209 206 210 219 224 218 202 205 204 203 208 201 192 182 177 192 191 205 228 211 227 246 232 229 204 217 219 224 213 197 202 178 185 189 194 198 191 202 207 211 216 219 221 223 226 227 229 229 230 232 232 233 233 235 237 238 239 238 236 232 228 224 221 220 221 217 220 229 236 237 238 243 246
203 208 213 209 213 212 222 225 210 211 203 199 200 206 200 189 182 189 191 221 231 202 232 247 253 248 237 231 235 208 204 180 177 181 191 194 197 186 198 205 211 216 220 223 225 227 229 231 232 233 235 234 234 233 233 236 239 240 239 238 234 229 224 221 218 212 216 220 223 226 231 233 237 243
200 205 209 213 211 207 211 219 220 212 210 203 204 205 208 211 196 185 189 206 230 201 207 223 236 223 217 222 220 216 216 181 182 178 186 196 193 197 202 202 207 212 216 220 223 225 229 231 233 235 236 236 238 238 237 238 238 238 238 237 234 230 226 221 219 216 217 219 223 225 226 230 236 242
201 203 206 207 211 207 212 213 212 217 210 205 207 208 205 206 203 199 200 214 225 235 217 215 221 245 263 260 231 236 229 167 199 188 190 195 203 202 205 205 209 210 214 218 220 223 225 228 231 233 234 235 235 236 237 236 236 235 235 235 233 230 226 222 218 215 218 220 222 224 227 231 235 240
202 204 208 209 207 207 214 211 211 210 214 211 204 208 206 203 207 199 201 209 214 224 214 221 221 228 217 241 224 225 220 227 185 214 214 212 199 193 198 200 203 209 214 216 218 219 221 223 224 225 228 230 231 233 234 235 233 233 232 232 231 229 226 222 218 217 219 221 222 225 227 230 234 239
197 205 207 212 211 204 212 216 216 212 212 213 215 209 206 212 210 206 201 196 210 214 221 206 213 211 213 214 222 222 219 213 199 200 214 220 224 221 199 205 209 200 210 214 217 217 218 220 221 221 222 224 225 228 231 232 232 230 230 230 229 227 225 221 219 216 213 218 222 224 226 228 232 237
197 199 204 209 210 209 212 219 218 217 217 213 213 213 205 206 211 212 206 208 210 207 214 212 215 209 215 224 220 229 219 211 212 224 228 222 230 239 234 224 228 195 204 212 217 217 217 218 219 220 221 221 221 223 226 229 231 230 228 228 228 225 223 221 218 218 219 220 221 224 225 228 231 236
200 199 202 203 204 210 217 221 220 214 217 220 217 217 213 205 205 211 210 211 207 211 216 217 216 212 213 211 213 210 219 222 222 222 219 216 229 235 237 242 225 210 199 211 215 216 216 217 218 219 221 221 221 223 224 226 228 228 227 227 227 226 223 221 220 219 220 221 222 224 225 227 230 234
205 207 204 201 200 206 216 227 225 215 214 218 226 224 219 214 203 205 207 207 211 212 219 211 217 213 219 225 219 211 212 214 215 224 231 233 230 232 241 241 241 236 185 210 225 224 224 224 223 222 222 221 220 221 223 224 226 226 225 226 226 225 224 221 221 220 220 221 223 224 226 226 230 232
211 209 208 202 201 206 211 220 225 220 214 213 221 227 226 226 219 207 206 205 209 214 214 216 215 216 214 213 225 216 219 220 211 213 215 234 234 229 221 239 248 237 190 207 199 200 201 207 211 218 220 219 220 221 223 224 225 224 223 224 224 224 223 222 221 221 220 221 223 224 224 226 229 233
217 211 208 208 206 209 212 215 219 219 216 213 217 220 226 227 230 226 214 209 210 211 214 216 213 212 217 221 221 222 215 228 231 215 208 225 228 235 233 229 233 238 191 197 205 223 216 223 225 228 226 227 226 225 228 228 226 224 222 223 223 222 222 221 221 221 220 221 223 224 223 223 226 233
221 220 210 207 209 211 213 212 214 215 216 215 217 216 214 222 224 229 229 222 217 218 214 217 211 214 215 218 213 214 220 221 222 210 204 228 222 220 235 241 228 212 207 201 198 208 195 204 207 205 215 223 223 229 226 230 230 228 224 224 223 222 222 221 221 221 220 220 222 223 224 223 225 230
219 223 224 219 211 211 212 213 213 213 213 216 220 216 210 213 217 222 227 228 223 219 220 217 205 210 219 214 208 217 221 221 223 230 226 232 227 226 249 257 239 211 221 213 223 220 189 201 213 202 216 226 206 222 214 224 222 223 224 225 223 221 221 221 221 221 220 221 222 224 225 224 224 228
210 215 221 224 222 217 213 213 214 214 214 217 223 225 217 208 208 216 220 225 225 223 226 226 218 220 221 217 210 217 215 210 205 209 212 222 221 224 228 248 257 217 204 227 228 246 190 184 214 212 216 218 207 210 217 217 219 224 222 223 223 222 221 221 222 221 221 222 223 225 226 225 224 228
210 210 212 219 222 218 215 215 217 218 218 219 223 226 225 220 216 212 210 216 221 224 227 228 227 225 227 220 209 218 212 215 210 214 208 208 209 217 224 234 239 210 190 224 238 251 202 184 209 217 217 212 210 207 211 213 213 216 219 217 216 217 219 220 221 221 221 222 223 225 226 224 224 227
208 209 211 215 219 216 209 215 219 216 222 227 227 226 227 227 222 227 232 230 221 222 228 232 234 228 227 225 227 218 216 198 213 214 214 216 213 214 223 230 234 230 189 195 232 245 231 187 205 225 223 212 214 209 211 213 211 212 214 215 215 215 216 218 219 219 220 223 224 225 226 224 223 225
206 207 208 210 214 217 209 209 214 219 222 222 226 230 229 228 230 229 228 229 232 232 229 230 234 235 226 233 241 237 192 203 220 213 222 218 218 220 227 227 228 227 181 216 229 253 236 204 218 233 231 215 223 213 199 208 208 209 211 211 209 210 212 214 214 216 219 222 224 225 226 223 222 225
207 206 207 209 211 211 210 205 207 214 219 220 223 225 226 230 232 229 228 227 226 226 219 230 237 239 231 241 238 226 220 234 253 224 241 248 243 241 252 256 240 239 204 199 191 250 242 194 219 238 233 222 228 221 209 203 205 208 210 210 210 207 208 209 209 212 216 221 223 224 225 223 223 225
208 209 206 206 208 208 209 209 202 207 214 219 222 221 224 227 232 234 234 232 230 230 229 229 235 239 239 246 348 48 37 0 22 11 358 346 339 312 275 254 244 241 219 189 207 241 250 203 217 239 234 229 238 223 225 211 206 208 210 209 207 208 208 208 206 208 213 219 221 222 222 221 221 222
260 232 214 208 209 209 212 209 202 203 205 218 219 221 222 225 227 235 238 239 236 238 239 242 247 256 269 286 289 286 274 226 128 3 322 276 265 264 263 261 255 251 217 218 209 226 251 227 221 246 240 230 241 241 226 210 213 209 211 205 204 206 209 208 205 205 211 216 218 219 218 219 218 218
292 305 309 298 249 229 216 207 199 197 195 213 219 220 222 219 222 229 233 237 230 230 231 233 243 250 253 253 252 255 260 257 213 220 251 264 283 257 249 257 255 267 239 232 181 202 241 240 218 243 253 258 245 246 247 196 213 213 213 205 203 205 208 209 204 203 209 212 213 214 213 214 210 205
261 262 271 286 291 303 302 287 217 196 189 210 219 222 223 225 224 223 221 220 218 209 205 226 233 243 243 244 246 250 248 245 231 224 239 251 253 257 255 255 265 268 253 233 159 207 239 235 236 210 256 253 253 239 209 172 178 172 192 210 218 218 213 212 203 202 207 207 208 208 208 208 190 195
248 246 249 252 272 267 256 262 268 220 199 206 217 217 226 235 227 221 222 210 204 194 47 276 234 237 241 246 244 244 245 242 234 235 234 235 238 246 252 249 244 247 256 217 171 204 233 218 239 191 213 238 260 233 207 198 179 191 177 193 203 213 212 217 216 209 205 203 204 205 206 201 185 192
238 235 228 222 224 228 238 247 249 237 207 217 218 223 226 228 230 225 223 223 161 110 190 230 244 229 247 244 243 242 241 239 232 220 214 219 219 225 235 242 244 251 254 244 179 221 241 211 242 208 227 220 245 258 221 219 183 180 185 186 198 193 186 201 195 201 207 206 206 208 210 200 194 195
235 237 238 236 229 216 219 232 228 217 207 202 190 217 236 231 223 219 228 213 154 189 166 212 235 241 228 234 235 232 230 226 220 218 218 217 223 224 227 230 233 241 243 225 179 216 223 237 236 237 245 233 246 215 240 233 190 197 176 191 198 189 186 182 184 197 183 194 203 206 208 203 201 207
235 239 290 353 7 12 344 266 235 222 218 204 197 205 227 222 218 213 230 224 219 216 198 197 210 226 232 232 233 226 226 219 209 213 217 220 218 224 233 238 241 247 258 256 189 207 198 234 266 252 244 239 259 297 245 240 226 169 189 199 191 170 191 152 190 193 193 196 207 200 203 202 204 211
324 6 36 44 9 12 1 359 330 265 238 242 250 234 224 222 214 209 222 228 232 232 240 241 227 216 226 230 235 241 241 232 219 221 217 217 216 220 225 233 242 248 255 259 244 140 225 242 233 231 239 230 219 226 242 235 209 172 197 202 184 201 166 184 192 190 199 196 188 174 167 183 200 201
360 27 44 22 2 356 15 21 21 8 310 266 254 255 263 279 269 233 221 226 230 236 236 234 235 231 228 233 238 230 226 213 196 200 235 223 215 216 231 229 226 230 238 247 242 152 218 224 243 272 269 235 229 238 233 239 186 199 192 171 215 203 191 195 193 196 195 189 194 176 182 187 190 193
258 312 314 314 320 346 354 355 346 340 343 305 282 275 265 241 233 221 218 218 224 232 234 233 235 239 240 237 236 235 228 225 229 230 237 237 242 241 242 240 237 232 235 234 225 208 225 231 228 235 232 236 226 242 234 243 237 236 203 208 195 2 225 190 195 194 185 196 193 182 185 185 190 173
172 173 190 200 226 229 253 266 265 259 270 257 219 241 287 295 283 248 227 238 245 241 236 236 236 238 242 250 250 238 228 229 226 218 226 225 234 236 244 239 247 249 242 240 232 219 217 224 230 228 234 238 230 229 268 220 235 214 216 197 173 209 179 190 192 187 193 195 184 169 156 189 209 178
100 124 174 198 189 191 214 235 276 271 268 276 290 290 285 272 276 294 298 284 260 255 253 254 246 239 235 241 242 245 245 247 242 227 224 217 225 219 228 231 237 242 257 260 253 235 222 222 217 216 224 230 231 155 177 201 220 224 223 208 200 222 183 194 192 191 181 178 171 166 155 179 198 203
156 161 141 100 51 112 109 68 26 329 285 281 251 239 248 250 265 266 245 253 247 244 249 254 258 260 257 254 251 249 254 251 253 239 243 231 232 224 208 227 224 213 227 238 243 244 235 232 215 221 221 205 186 197 188 230 239 229 231 212 196 209 194 197 185 180 166 174 178 154 174 201 206 195
97 115 123 104 56 4 63 157 211 255 266 282 288 267 229 233 238 240 233 224 231 230 232 240 242 246 246 257 258 259 260 265 259 251 237 247 220 220 214 226 232 229 233 238 234 236 235 223 191 201 176 209 228 210 202 228 246 239 228 228 196 210 193 181 176 168 172 173 155 163 196 231 250 247
38 29 31 36 40 27 33 36 29 16 18 3 343 339 343 315 293 276 286 312 295 263 232 228 230 233 236 246 250 252 251 253 259 263 244 239 246 246 239 233 230 225 228 233 232 220 189 177 170 200 221 253 267 254 221 224 242 243 238 224 203 186 184 172 144 153 157 141 140 162 189 214 236 238
40 39 42 36 34 29 29 23 20 23 21 14 12 4 1 359 4 9 7 347 3 355 358 341 328 300 273 258 250 245 246 241 247 248 254 235 242 247 248 246 249 247 240 239 237 215 190 186 177 202 223 228 232 256 256 224 218 227 215 221 171 155 148 129 156 156 155 164 180 162 179 204 228 227
46 38 39 35 33 32 29 22 19 18 19 13 14 11 2 353 358 5 355 350 358 356 356 350 7 356 347 338 316 293 276 253 247 244 242 240 234 241 257 266 265 264 266 260 252 230 179 201 191 201 224 236 235 244 251 91 222 218 195 202 170 178 166 157 158 174 185 163 167 180 188 197 218 230
44 39 39 37 31 28 27 23 21 22 17 10 10 4 3 353 359 359 356 0 359 359 1 0 356 355 349 352 360 355 340 325 321 298 269 261 257 254 252 258 259 257 258 262 256 243 209 208 201 204 210 229 239 244 260 266 161 260 211 181 182 182 169 161 174 182 193 193 188 192 184 202 211 219
41 38 34 30 29 26 27 24 22 20 16 10 9 4 359 358 2 360 2 1 358 2 357 0 358 354 349 350 356 356 349 347 348 343 335 317 305 292 282 273 272 274 277 273 266 257 239 241 229 223 219 230 232 231 226 214 228 216 214 204 181 161 177 181 186 182 187 194 206 200 207 137 64 85
43 42 38 33 27 25 24 23 23 20 17 14 10 6 4 4 5 1 0 358 359 359 357 351 348 350 356 352 349 343 344 349 336 326 326 327 329 326 315 309 299 291 283 269 267 258 251 246 240 236 236 238 256 290 202 180 188 146 193 228 192 175 183 177 183 182 194 197 184 177 177 170 166 170
41 42 38 36 33 29 25 23 20 19 17 11 11 7 9 3 7 4 359 358 356 358 355 351 352 352 350 349 346 342 335 334 333 331 323 318 314 311 303 303 294 289 284 275 270 268 259 262 270 265 255 256 188 99 45 253 230 173 206 224 237 221 186 180 174 175 177 180 187 174 170 176 170 159
38 41 38 33 34 30 30 29 24 22 17 14 12 9 5 4 5 1 0 2 3 360 355 351 350 348 347 342 338 332 330 324 326 326 327 323 320 312 303 295 286 285 272 271 270 267 275 294 303 303 282 249 157 197 232 231 234 215 199 206 205 146 81 68 68 71 156 181 177 155 147 166 124 140
35 32 33 27 28 27 26 25 21 19 16 14 14 10 5 4 2 2 2 359 358 357 352 346 342 341 339 337 334 330 323 323 326 324 316 313 309 307 305 295 285 282 277 277 277 284 288 292 287 276 264 232 221 212 233 226 218 190 181 181 198 175 110 65 75 75 62 44 31 91 173 167 145 173
30 29 27 24 23 23 24 22 19 19 15 16 10 10 10 4 3 2 360 354 352 345 340 338 337 336 334 330 325 325 329 328 322 317 312 309 302 298 297 295 292 286 286 281 287 282 284 279 268 254 251 238 223 221 238 228 213 195 186 188 176 164 168 141 85 67 56 41 29 27 52 70 89 124
31 28 27 21 21 18 20 19 17 15 13 10 13 12 6 5 5 357 354 350 346 339 333 329 329 331 329 325 327 327 325 324 321 322 321 323 321 312 302 294 293 294 289 283 284 289 279 272 267 261 248 249 231 224 230 211 214 189 188 172 188 177 163 158 153 135 100 72 14 10 32 62 67 59